Zurück zum Katalog

ICEYE-X44

AktivWissenschaftSSO
NORAD 62707·PAYLOAD·🇦🇪 UAE

Gestartet Jan 14, 2025 von Vandenberg Space Force Base

Loading…

Nächste Überflüge (nächste 24 Stunden)

TLE

AktuellSource: Space-Track

Epoche: Sep 14, 2026, 03:56 UTC

1 62707U 25009DC  26257.16415040  .00002602  00000-0  23453-3 0  9991
2 62707  97.7000 334.8804 0002106 137.6896 222.4489 14.96425674113246

Verfolge ICEYE-X44 in Echtzeit mit AllMySat

Download on the App Store